Dades meteomassalio
Diari Summary for Agost 9, 2017 Units:  Metric    English   Both
« Previous Day
Next Day »
Diari Semanal Mensual Anual Personalitzat
  Maxima: Minima: Mijana:
Temperatura: -17.8 °C -9.1 °C -7.2 °C
Rosada: -17.8 °C -13.1 °C -12.4 °C
Humitat: Humidity % 45 % 54 %
Velocitat del vent: 0 km/h 0 km/h 19.3 km/h
Racha vent: 0 km/h - -
Vent:- - WNW
Pressio: 0 hPa 34418.7 hPa -
Pluja: 20.32 mm    
Historical Graphs
 
 
Tabular Data for Agost 9, 2017
Time Temperature Dew Point Pressure Wind Wind Speed Wind Gust Humidity Rainfall Rate (Hourly) solar Conditions
-17.8 °C -17.8 °C 0 hPa Calm     Humidity % 0 mm SolarRadiationWatts/m^2 W/m2 Conditions
00:01 -6.3 °C -12.8 °C 34428.8 hPa West 23.8 km/h 23.8 km/h 47 % 0 mm 0.0 W/m2 CLR
00:06 -6.3 °C -12.8 °C 34428.8 hPa West 29.8 km/h 29.8 km/h 47 % 0 mm 0.0 W/m2 CLR
00:11 -6.4 °C -12.9 °C 34428.8 hPa WNW 29.8 km/h 29.8 km/h 47 % 0 mm 0.0 W/m2 CLR
00:16 -6.4 °C -12.9 °C 34428.8 hPa West 20.9 km/h 20.9 km/h 47 % 0 mm 0.0 W/m2 CLR
00:21 -6.5 °C -12.8 °C 34428.8 hPa West 29.8 km/h 29.8 km/h 48 % 0 mm 0.0 W/m2 CLR
00:26 -6.6 °C -12.9 °C 34428.8 hPa West 29.8 km/h 29.8 km/h 48 % 0 mm 0.0 W/m2 CLR
00:31 -6.6 °C -12.7 °C 34428.8 hPa WNW 33.6 km/h 33.6 km/h 49 % 0 mm 0.0 W/m2 CLR
00:36 -6.6 °C -12.7 °C 34428.8 hPa WNW 31.1 km/h 31.1 km/h 49 % 0 mm 0.0 W/m2 CLR
00:41 -6.7 °C -12.6 °C 34428.8 hPa WNW 35.7 km/h 35.7 km/h 50 % 0 mm 0.0 W/m2 CLR
00:46 -6.7 °C -12.7 °C 34442.4 hPa West 32.8 km/h 32.8 km/h 50 % 0 mm 0.0 W/m2 CLR
00:51 -6.8 °C -12.6 °C 34442.4 hPa West 35.7 km/h 35.7 km/h 51 % 0 mm 0.0 W/m2 CLR
00:57 -6.8 °C -12.6 °C 34442.4 hPa WNW 50.7 km/h 50.7 km/h 51 % 0 mm 0.0 W/m2 CLR
01:02 -6.8 °C -12.6 °C 34442.4 hPa West 35.7 km/h 35.7 km/h 51 % 0 mm 0.0 W/m2 CLR
01:07 -6.8 °C -12.7 °C 34442.4 hPa WNW 29.8 km/h 29.8 km/h 51 % 0 mm 0.0 W/m2 CLR
01:12 -6.8 °C -12.7 °C 34442.4 hPa WNW 29.8 km/h 29.8 km/h 51 % 0 mm 0.0 W/m2 CLR
01:17 -6.9 °C -12.7 °C 34442.4 hPa West 29.8 km/h 29.8 km/h 51 % 0 mm 0.0 W/m2 CLR
01:22 -6.9 °C -12.7 °C 34442.4 hPa West 29.8 km/h 29.8 km/h 51 % 0 mm 0.0 W/m2 CLR
01:27 -6.9 °C -12.6 °C 34442.4 hPa West 15 km/h 15 km/h 52 % 0 mm 0.0 W/m2 CLR
01:32 -6.9 °C -12.6 °C 34442.4 hPa WSW 11.9 km/h   52 % 0 mm 0.0 W/m2 CLR
01:37 -7 °C -12.6 °C 34442.4 hPa Calm     52 % 0 mm 0.0 W/m2 CLR
01:42 -7.1 °C -12.6 °C 34442.4 hPa West 9 km/h 10.1 km/h 53 % 0 mm 0.0 W/m2 CLR
01:47 -7.2 °C -12.6 °C 34442.4 hPa Calm     53 % 0 mm 0.0 W/m2 CLR
01:52 -7.2 °C -12.5 °C 34442.4 hPa SW 9 km/h 9 km/h 54 % 0 mm 0.0 W/m2 CLR
01:57 -7.3 °C -12.6 °C 34442.4 hPa Calm     54 % 0 mm 0.0 W/m2 CLR
02:02 -7.3 °C -12.6 °C 34442.4 hPa SW 6 km/h 6 km/h 54 % 0 mm 0.0 W/m2 CLR
02:07 -7.4 °C -12.6 °C 34442.4 hPa Calm     55 % 0 mm 0.0 W/m2 CLR
02:12 -7.4 °C -12.6 °C 34442.4 hPa WSW 3.1 km/h   55 % 0 mm 0.0 W/m2 CLR
02:17 -7.6 °C -12.5 °C 34442.4 hPa West 17.9 km/h 17.9 km/h 56 % 0 mm 0.0 W/m2 CLR
02:22 -7.4 °C -12.4 °C 34442.4 hPa West 23.8 km/h 23.8 km/h 56 % 0 mm 0.0 W/m2 CLR
02:27 -7.4 °C -12.4 °C 34442.4 hPa West 26.9 km/h 26.9 km/h 56 % 0 mm 0.0 W/m2 CLR
02:32 -7.4 °C -12.4 °C 34442.4 hPa WSW 18.2 km/h 18.2 km/h 56 % 0 mm 0.0 W/m2 CLR
02:37 -7.6 °C -12.5 °C 34442.4 hPa WSW 12.9 km/h 12.9 km/h 56 % 0 mm 0.0 W/m2 CLR
02:42 -7.6 °C -12.6 °C 34442.4 hPa West 9 km/h 9 km/h 56 % 0 mm 0.0 W/m2 CLR
02:47 -7.7 °C -12.7 °C 34442.4 hPa WSW 11.9 km/h 11.9 km/h 56 % 0 mm 0.0 W/m2 CLR
02:52 -7.7 °C -12.7 °C 34428.8 hPa Calm     56 % 0 mm 0.0 W/m2 CLR
02:57 -7.7 °C -12.6 °C 34428.8 hPa Calm     56 % 0 mm 0.0 W/m2 CLR
03:02 -7.7 °C -12.7 °C 34442.4 hPa Calm     56 % 0 mm 0.0 W/m2 CLR
03:07 -7.7 °C -12.7 °C 34428.8 hPa WSW 29.8 km/h 29.8 km/h 56 % 0 mm 0.0 W/m2 CLR
03:12 -7.7 °C -12.7 °C 34428.8 hPa West 23.8 km/h 23.8 km/h 56 % 0 mm 0.0 W/m2 CLR
03:17 -7.7 °C -12.7 °C 34442.4 hPa Calm     56 % 0 mm 0.0 W/m2 CLR
03:22 -7.8 °C -12.7 °C 34428.8 hPa WSW 15 km/h 15 km/h 56 % 0 mm 0.0 W/m2 CLR
03:27 -7.8 °C -12.7 °C 34428.8 hPa Calm     56 % 0 mm 0.0 W/m2 CLR
03:32 -7.9 °C -12.8 °C 34428.8 hPa Calm     56 % 0 mm 0.0 W/m2 CLR
03:38 -7.9 °C -12.9 °C 34428.8 hPa Calm     56 % 0 mm 0.0 W/m2 CLR
03:43 -7.9 °C -12.9 °C 34428.8 hPa WSW 9 km/h 9 km/h 56 % 0 mm 0.0 W/m2 CLR
03:48 -8 °C -12.9 °C 34428.8 hPa West 10.3 km/h   56 % 0 mm 0.0 W/m2 CLR
03:53 -8 °C -12.9 °C 34428.8 hPa Calm     56 % 0 mm 0.0 W/m2 CLR
03:58 -8 °C -12.9 °C 34428.8 hPa Calm   1.6 km/h 56 % 0 mm 0.0 W/m2 CLR
04:03 -8.1 °C -13 °C 34428.8 hPa Calm     56 % 0 mm 0.0 W/m2 CLR
04:08 -8.1 °C -12.9 °C 34428.8 hPa Calm     57 % 0 mm 0.0 W/m2 CLR
04:13 -8.1 °C -12.9 °C 34428.8 hPa Calm     57 % 0 mm 0.0 W/m2 CLR
04:18 -8.2 °C -13 °C 34428.8 hPa Calm     57 % 0 mm 0.0 W/m2 CLR
04:23 -8.3 °C -12.9 °C 34428.8 hPa Calm   2.1 km/h 58 % 0 mm 0.0 W/m2 CLR
04:28 -8.3 °C -12.9 °C 34428.8 hPa WSW 6 km/h   58 % 0 mm 0.0 W/m2 CLR
04:33 -8.2 °C -12.9 °C 34418.7 hPa Calm     58 % 0 mm 0.0 W/m2 CLR
04:38 -8.2 °C -12.9 °C 34428.8 hPa Calm     58 % 0 mm 0.0 W/m2 CLR
04:43 -8.3 °C -12.9 °C 34428.8 hPa Calm     58 % 0 mm 0.0 W/m2 CLR
04:48 -8.4 °C -13 °C 34428.8 hPa Calm     58 % 0 mm 0.0 W/m2 CLR
04:54 -8.4 °C -12.9 °C 34428.8 hPa Calm     59 % 0 mm 0.0 W/m2 CLR
04:59 -8.6 °C -13 °C 34428.8 hPa Calm     59 % 0 mm 0.0 W/m2 CLR
05:04 -8.6 °C -13.1 °C 34428.8 hPa Calm     59 % 0 mm 0.0 W/m2 CLR
05:09 -8.7 °C -12.9 °C 34428.8 hPa Calm     60 % 0 mm 0.0 W/m2 CLR
05:16 -8.7 °C -12.9 °C 34428.8 hPa Calm     61 % 0 mm 0.0 W/m2 CLR
05:18 -8.7 °C -13 °C 34428.8 hPa Calm     60 % 0 mm 0.0 W/m2 CLR
05:21 -8.7 °C -12.9 °C 34428.8 hPa Calm     61 % 0 mm 0.0 W/m2 CLR
05:22 -8.7 °C -12.9 °C 34428.8 hPa Calm     61 % 0 mm 0.0 W/m2 CLR
05:27 -8.8 °C -12.9 °C 34428.8 hPa Calm     61 % 0 mm 0.0 W/m2 CLR
05:32 -8.8 °C -13 °C 34428.8 hPa Calm     61 % 0 mm 0.0 W/m2 CLR
05:37 -8.8 °C -13 °C 34428.8 hPa Calm     61 % 0 mm 0.0 W/m2 CLR
05:42 -8.8 °C -13 °C 34428.8 hPa Calm     61 % 0 mm 0.0 W/m2 CLR
05:47 -8.9 °C -12.9 °C 34428.8 hPa Calm     62 % 0 mm 0.0 W/m2 CLR
05:52 -9 °C -13.1 °C 34428.8 hPa Calm     62 % 0 mm 0.0 W/m2 CLR
05:57 -9 °C -13.1 °C 34418.7 hPa Calm     62 % 0 mm 0.0 W/m2 CLR
06:02 -9 °C -12.7 °C 34418.7 hPa Calm     64 % 0 mm 0.0 W/m2 CLR
06:07 -9 °C -12.7 °C 34418.7 hPa Calm     64 % 0 mm 0.0 W/m2 CLR
06:12 -9 °C -12.8 °C 34428.8 hPa Calm     64 % 0 mm 0.0 W/m2 CLR
06:17 -9.1 °C -12.8 °C 34418.7 hPa Calm     64 % 0 mm 0.0 W/m2 CLR
06:22 -9.1 °C -12.8 °C 34428.8 hPa Calm     64 % 0 mm 0.0 W/m2 CLR
06:27 -9.1 °C -12.8 °C 34418.7 hPa Calm     64 % 0 mm 0.0 W/m2 CLR
06:32 -9 °C -12.7 °C 34418.7 hPa Calm     64 % 0 mm 0.0 W/m2 CLR
06:37 -8.9 °C -12.7 °C 34428.8 hPa Calm     64 % 0 mm 0.0 W/m2 CLR
06:42 -8.9 °C -12.7 °C 34418.7 hPa Calm     64 % 0 mm 0.0 W/m2 CLR
06:47 -8.9 °C -12.9 °C 34418.7 hPa Calm     63 % 0 mm 0.0 W/m2 CLR
06:52 -8.9 °C -12.8 °C 34418.7 hPa Calm     63 % 0 mm 0.0 W/m2 CLR
06:57 -8.9 °C -12.8 °C 34418.7 hPa Calm     63 % 0 mm 0.0 W/m2 CLR
07:02 -8.8 °C -12.8 °C 34418.7 hPa Calm     63 % 0 mm 0.0 W/m2 OVC
07:07 -8.8 °C -12.6 °C 34428.8 hPa Calm     64 % 0 mm 0.0 W/m2 OVC
07:12 -8.8 °C -12.6 °C 34418.7 hPa Calm     64 % 0 mm 0.0 W/m2 OVC
07:17 -8.8 °C -12.7 °C 34418.7 hPa Calm     63 % 0 mm 7.0 W/m2 BKN
07:22 -8.8 °C -12.7 °C 34428.8 hPa Calm     63 % 0 mm 9.0 W/m2 BKN
07:27 -8.7 °C -12.6 °C 34428.8 hPa Calm     63 % 0 mm 12.0 W/m2 BKN
07:32 -8.7 °C -12.7 °C 34428.8 hPa Calm     62 % 0 mm 21.0 W/m2 BKN
07:37 -8.7 °C -12.7 °C 34428.8 hPa Calm     62 % 0 mm 26.0 W/m2 BKN
07:42 -8.6 °C -12.7 °C 34428.8 hPa Calm     62 % 0 mm 33.0 W/m2 BKN
07:47 -8.5 °C -12.6 °C 34428.8 hPa Calm     62 % 0 mm 35.0 W/m2 BKN
07:48 -8.5 °C -12.6 °C 34428.8 hPa Calm     62 % 0 mm 37.0 W/m2 BKN
07:53 -8.4 °C -12.6 °C 34428.8 hPa Calm     61 % 0 mm 39.0 W/m2 BKN
07:58 -8.3 °C -12.6 °C 34428.8 hPa WNW 9 km/h 9 km/h 60 % 0 mm 49.0 W/m2 SCT
08:03 -8.2 °C -12.6 °C 34428.8 hPa WNW 6 km/h 6 km/h 60 % 0 mm 53.0 W/m2 SCT
08:08 -8.2 °C -12.6 °C 34428.8 hPa WNW 6 km/h 6 km/h 60 % 0 mm 58.0 W/m2 SCT
08:13 -8.2 °C -12.7 °C 34428.8 hPa NW 9 km/h 9 km/h 59 % 0 mm 69.0 W/m2 SCT
08:18 -8.2 °C -12.7 °C 34428.8 hPa WNW 9 km/h 9 km/h 59 % 0 mm 79.0 W/m2 FEW
08:23 -8.2 °C -12.7 °C 34428.8 hPa West 9 km/h 9 km/h 59 % 0 mm 100.0 W/m2 FEW
08:28 -8.1 °C -12.6 °C 34428.8 hPa West 9 km/h 9 km/h 59 % 0 mm 111.0 W/m2 CLR
08:33 -8.1 °C -12.6 °C 34428.8 hPa Calm     59 % 0 mm 114.0 W/m2 CLR
08:38 -8 °C -12.6 °C 34428.8 hPa West 15 km/h 15 km/h 59 % 0 mm 109.0 W/m2 CLR
08:43 -8 °C -12.6 °C 34428.8 hPa West 9 km/h 9 km/h 59 % 0 mm 120.0 W/m2 CLR
08:48 -7.9 °C -12.6 °C 34428.8 hPa WNW 15.6 km/h 15.6 km/h 58 % 0 mm 130.0 W/m2 CLR
08:53 -7.9 °C -12.4 °C 34428.8 hPa WNW 11.9 km/h 11.9 km/h 59 % 0 mm 153.0 W/m2 CLR
08:58 -7.8 °C -12.5 °C 34428.8 hPa West 15 km/h 15 km/h 58 % 0 mm 158.0 W/m2 CLR
09:03 -7.8 °C -12.4 °C 34442.4 hPa West 11.9 km/h 11.9 km/h 58 % 0 mm 195.0 W/m2 CLR
09:08 -7.7 °C -12.5 °C 34428.8 hPa West 9 km/h 9 km/h 57 % 0 mm 234.0 W/m2 CLR
09:13 -7.7 °C -12.4 °C 34442.4 hPa NW 23.8 km/h 23.8 km/h 57 % 0 mm 202.0 W/m2 CLR
09:18 -7.7 °C -12.5 °C 34442.4 hPa WNW 29.8 km/h 29.8 km/h 57 % 0 mm 320.0 W/m2 CLR
09:23 -7.7 °C -12.4 °C 34442.4 hPa NW 31.1 km/h 31.1 km/h 58 % 0 mm 239.0 W/m2 CLR
09:28 -7.7 °C -12.4 °C 34442.4 hPa WNW 28.5 km/h 28.5 km/h 58 % 0 mm 221.0 W/m2 CLR
09:33 -7.7 °C -12.3 °C 34442.4 hPa WNW 23.8 km/h 23.8 km/h 58 % 0 mm 216.0 W/m2 CLR
09:38 -7.7 °C -12.4 °C 34442.4 hPa NW 23.8 km/h 23.8 km/h 57 % 0 mm 190.0 W/m2 CLR
09:43 -7.6 °C -12.3 °C 34442.4 hPa WNW 17.9 km/h 17.9 km/h 58 % 0 mm 260.0 W/m2 CLR
09:48 -7.6 °C -12.4 °C 34442.4 hPa Calm     57 % 0 mm 253.0 W/m2 CLR
09:53 -7.4 °C -12.3 °C 34442.4 hPa WNW 20.9 km/h 20.9 km/h 57 % 0 mm 206.0 W/m2 CLR
09:58 -7.5 °C -12.4 °C 34442.4 hPa NW 29.8 km/h 29.8 km/h 56 % 0 mm 207.0 W/m2 CLR
10:03 -7.6 °C -12.3 °C 34442.4 hPa NW 29.8 km/h 29.8 km/h 57 % 0 mm 197.0 W/m2 CLR
10:08 -7.5 °C -12.3 °C 34442.4 hPa NW 29.8 km/h 29.8 km/h 57 % 0 mm 220.0 W/m2 CLR
10:13 -7.4 °C -12.4 °C 34442.4 hPa Calm     56 % 0 mm 206.0 W/m2 CLR
10:18 -7.4 °C -12.4 °C 34442.4 hPa NW 20.9 km/h 20.9 km/h 56 % 0 mm 230.0 W/m2 CLR
10:23 -7.4 °C -12.4 °C 34442.4 hPa WNW 23.8 km/h 23.8 km/h 56 % 0 mm 213.0 W/m2 CLR
10:28 -7.4 °C -12.3 °C 34442.4 hPa West 26.9 km/h 26.9 km/h 56 % 0 mm 213.0 W/m2 CLR
10:33 -7.3 °C -12.3 °C 34452.6 hPa NW 29.8 km/h 29.8 km/h 56 % 0 mm 269.0 W/m2 CLR
10:38 -7.2 °C -12.2 °C 34452.6 hPa WNW 26.9 km/h 26.9 km/h 56 % 0 mm 302.0 W/m2 CLR
10:43 -7.2 °C -12.3 °C 34452.6 hPa WNW 15 km/h 15 km/h 55 % 0 mm 427.0 W/m2 CLR
10:48 -7.2 °C -12.3 °C 34442.4 hPa West 6 km/h   55 % 0 mm 283.0 W/m2 CLR
10:53 -7.2 °C -12.2 °C 34452.6 hPa WNW 32.8 km/h 32.8 km/h 56 % 0 mm 265.0 W/m2 CLR
10:58 -7 °C -12.3 °C 34452.6 hPa NW 25.9 km/h 25.9 km/h 54 % 0 mm 323.0 W/m2 CLR
11:03 -7 °C -12.4 °C 34452.6 hPa WNW 23.8 km/h 23.8 km/h 53 % 0 mm 385.0 W/m2 CLR
11:08 -6.9 °C -12.3 °C 34452.6 hPa WNW 26.9 km/h 26.9 km/h 54 % 0 mm 241.0 W/m2 CLR
11:13 -6.9 °C -12.3 °C 34442.4 hPa NW 10.3 km/h 10.3 km/h 54 % 0 mm 290.0 W/m2 CLR
11:18 -6.8 °C -12.2 °C 34442.4 hPa WNW 20.9 km/h 20.9 km/h 54 % 0 mm 283.0 W/m2 CLR
11:23 -6.7 °C -12.2 °C 34442.4 hPa NW 26.9 km/h 26.9 km/h 53 % 0 mm 492.0 W/m2 CLR
11:28 -6.7 °C -12.3 °C 34442.4 hPa NNW 23.8 km/h 23.8 km/h 52 % 0 mm 225.0 W/m2 CLR
11:33 -6.7 °C -12.3 °C 34442.4 hPa NW 26.9 km/h 26.9 km/h 52 % 0 mm 134.0 W/m2 CLR
11:38 -6.7 °C -12.2 °C 34452.6 hPa NW 20.9 km/h 20.9 km/h 53 % 0 mm 107.0 W/m2 CLR
11:43 -6.8 °C -12.3 °C 34442.4 hPa WNW 23.8 km/h 23.8 km/h 53 % 0 mm 181.0 W/m2 CLR
11:48 -6.8 °C -12.3 °C 34442.4 hPa WNW 18.2 km/h 18.2 km/h 53 % 0 mm 318.0 W/m2 CLR
11:53 -6.8 °C -12.3 °C 34442.4 hPa NW 3.1 km/h   53 % 0 mm 345.0 W/m2 CLR
11:58 -6.6 °C -12.1 °C 34442.4 hPa Calm     53 % 0 mm 308.0 W/m2 CLR
12:03 -6.6 °C -12.2 °C 34442.4 hPa WNW 9 km/h 9 km/h 52 % 0 mm 243.0 W/m2 CLR
12:08 -6.6 °C -12.3 °C 34442.4 hPa Calm     52 % 0 mm 220.0 W/m2 CLR
12:13 -6.6 °C -12.3 °C 34442.4 hPa West 6 km/h 6 km/h 52 % 0 mm 214.0 W/m2 CLR
12:18 -6.7 °C -12.3 °C 34442.4 hPa West 6 km/h   52 % 0 mm 183.0 W/m2 CLR
12:23 -6.7 °C -12.3 °C 34442.4 hPa Calm     52 % 0 mm 181.0 W/m2 CLR
12:28 -6.6 °C -12.3 °C 34442.4 hPa Calm     52 % 0 mm 251.0 W/m2 CLR
12:33 -6.5 °C -12.3 °C 34442.4 hPa NW 20.9 km/h 20.9 km/h 51 % 0 mm 411.0 W/m2 CLR
12:38 -6.4 °C -12.2 °C 34442.4 hPa WNW 9 km/h 9 km/h 51 % 0 mm 229.0 W/m2 CLR
12:43 -6.4 °C -12.2 °C 34442.4 hPa NNW 29.8 km/h 29.8 km/h 51 % 0 mm 199.0 W/m2 CLR
12:48 -6.4 °C -12.2 °C 34442.4 hPa NNW 32.8 km/h 32.8 km/h 51 % 0 mm 241.0 W/m2 CLR
12:53 -6.4 °C -12.3 °C 34452.6 hPa Calm     51 % 0 mm 209.0 W/m2 CLR
12:58 -6.4 °C -12.2 °C 34452.6 hPa WNW 20.9 km/h 20.9 km/h 51 % 0 mm 216.0 W/m2 CLR
13:03 -6.3 °C -12.2 °C 34452.6 hPa NW 23.8 km/h 23.8 km/h 51 % 0 mm 213.0 W/m2 CLR
13:08 -6.3 °C -12.2 °C 34452.6 hPa NW 11.9 km/h   51 % 0 mm 225.0 W/m2 CLR
13:13 -6.3 °C -12 °C 34452.6 hPa NW 17.9 km/h 17.9 km/h 52 % 0 mm 374.0 W/m2 CLR
13:18 -6.2 °C -12 °C 34442.4 hPa NW 20.8 km/h 20.8 km/h 51 % 0 mm 494.0 W/m2 CLR
13:23 -5.9 °C -12.1 °C 34442.4 hPa North 23.8 km/h 23.8 km/h 49 % 0 mm 497.0 W/m2 CLR
13:28 -5.9 °C -11.9 °C 34442.4 hPa NW 17.9 km/h 17.9 km/h 50 % 0 mm 469.0 W/m2 CLR
13:29 -5.9 °C -11.9 °C 34442.4 hPa WNW 26.9 km/h 26.9 km/h 50 % 0 mm 469.0 W/m2 CLR
13:34 -5.9 °C -12 °C 34442.4 hPa NW 9 km/h 9 km/h 50 % 0 mm 237.0 W/m2 CLR
13:39 -5.9 °C -12 °C 34428.8 hPa Calm   0.3 km/h 50 % 0 mm 364.0 W/m2 CLR
13:44 -5.7 °C -11.8 °C 34428.8 hPa WNW 20.8 km/h 20.8 km/h 50 % 0 mm 1093.0 W/m2 CLR
13:49 -5.6 °C -11.9 °C 34428.8 hPa West 23.3 km/h 23.3 km/h 48 % 0 mm 397.0 W/m2 CLR
13:54 -5.6 °C -12.2 °C 34428.8 hPa NNW 26.9 km/h 26.9 km/h 47 % 0 mm 874.0 W/m2 CLR
13:59 -5.6 °C -12 °C 34428.8 hPa Calm     48 % 0 mm 403.0 W/m2 CLR
14:04 -5.6 °C -11.9 °C 34428.8 hPa NNW 26.9 km/h 26.9 km/h 48 % 0 mm 424.0 W/m2 CLR
14:09 -5.4 °C -11.7 °C 34428.8 hPa WNW 26.9 km/h 26.9 km/h 49 % 0 mm 1121.0 W/m2 CLR
14:14 -5.1 °C -11.7 °C 34428.8 hPa WNW 29.8 km/h 29.8 km/h 47 % 0 mm 1090.0 W/m2 CLR
14:19 -4.9 °C -11.6 °C 34418.7 hPa NW 23.3 km/h 23.3 km/h 47 % 0 mm 1060.0 W/m2 CLR
14:24 -4.9 °C -11.8 °C 34418.7 hPa NNW 6 km/h 6 km/h 46 % 0 mm 390.0 W/m2 CLR
14:29 -5.1 °C -11.7 °C 34418.7 hPa NW 12.9 km/h 12.9 km/h 47 % 0 mm 598.0 W/m2 CLR
14:34 -5 °C -11.6 °C 34418.7 hPa Calm     47 % 0 mm 954.0 W/m2 CLR
14:39 -4.9 °C -11.8 °C 34418.7 hPa Calm     46 % 0 mm 214.0 W/m2 CLR
14:44 -5 °C -11.8 °C 34418.7 hPa WNW 32.8 km/h 32.8 km/h 46 % 0 mm 367.0 W/m2 CLR
14:49 -5.1 °C -11.8 °C 34418.7 hPa NNW 26.9 km/h 26.9 km/h 46 % 0 mm 396.0 W/m2 CLR
14:54 -4.9 °C -11.7 °C 34418.7 hPa NW 26.9 km/h 26.9 km/h 46 % 0 mm 396.0 W/m2 CLR
14:59 -4.8 °C -11.6 °C 34418.7 hPa WNW 9 km/h 9 km/h 46 % 0 mm 529.0 W/m2 CLR
15:04 -4.8 °C -11.8 °C 34418.7 hPa Calm     45 % 0 mm 271.0 W/m2 CLR
15:09 -4.8 °C -11.8 °C 34418.7 hPa NNW 32.8 km/h 32.8 km/h 45 % 0 mm 241.0 W/m2 CLR
15:14 -4.9 °C -11.9 °C 34418.7 hPa NNW 23.8 km/h 23.8 km/h 45 % 0 mm 223.0 W/m2 CLR
15:19 -5 °C -12 °C 34428.8 hPa NW 23.8 km/h 23.8 km/h 45 % 0 mm 167.0 W/m2 CLR
15:24 -5.1 °C -11.9 °C 34428.8 hPa NNW 20.9 km/h 20.9 km/h 46 % 0 mm 158.0 W/m2 CLR
15:29 -5.2 °C -11.9 °C 34428.8 hPa Calm     46 % 0 mm 162.0 W/m2 CLR
15:34 -5.2 °C -12 °C 34428.8 hPa West 9 km/h 9 km/h 46 % 0 mm 239.0 W/m2 CLR
15:39 -5.2 °C -12 °C 34428.8 hPa Calm     46 % 0 mm 199.0 W/m2 CLR
15:44 -5.2 °C -12 °C 34428.8 hPa NW 2.6 km/h 3.9 km/h 46 % 0 mm 141.0 W/m2 CLR
15:49 -5.2 °C -12.1 °C 34428.8 hPa NW 10.3 km/h 10.3 km/h 46 % 0 mm 121.0 W/m2 CLR
15:54 -5.3 °C -12.1 °C 34428.8 hPa WNW 9 km/h 9 km/h 46 % 0 mm 137.0 W/m2 CLR
15:59 -5.4 °C -12.1 °C 34418.7 hPa Calm     46 % 0 mm 204.0 W/m2 CLR
16:04 -5.3 °C -12.1 °C 34418.7 hPa Calm     46 % 0 mm 209.0 W/m2 CLR
16:09 -5.2 °C -12 °C 34418.7 hPa WNW 9 km/h 9 km/h 46 % 0 mm 193.0 W/m2 CLR
16:14 -5.2 °C -12.1 °C 34418.7 hPa Calm     46 % 0 mm 227.0 W/m2 CLR
16:15 -5.2 °C -12.1 °C 34418.7 hPa Calm     46 % 0 mm 227.0 W/m2 CLR
16:20 -5.2 °C -12.2 °C 34418.7 hPa Calm     45 % 0 mm 230.0 W/m2 CLR
16:25 -5.2 °C -11.9 °C 34418.7 hPa North 6 km/h   46 % 0 mm 207.0 W/m2 CLR
16:30 -5.1 °C -12.1 °C 34418.7 hPa Calm     45 % 0 mm 128.0 W/m2 CLR
16:35 -5.1 °C -12 °C 34418.7 hPa Calm     45 % 0 mm 104.0 W/m2 CLR
16:40 -5.1 °C -12.1 °C 34418.7 hPa SW 7.7 km/h 7.7 km/h 45 % 0 mm 91.0 W/m2 CLR
16:45 -5.1 °C -12.1 °C 34418.7 hPa West 15.6 km/h 15.6 km/h 45 % 0 mm 88.0 W/m2 CLR
16:50 -5.1 °C -12.1 °C 34418.7 hPa NW 20.9 km/h 20.9 km/h 45 % 0 mm 88.0 W/m2 CLR
16:55 -5.1 °C -12.1 °C 34418.7 hPa NNW 15 km/h 15 km/h 45 % 0 mm 67.0 W/m2 FEW
17:00 -5.1 °C -12.1 °C 34418.7 hPa WNW 9 km/h 9 km/h 45 % 0 mm 63.0 W/m2 FEW
17:05 -5.1 °C -12.1 °C 34418.7 hPa NNW 17.9 km/h 17.9 km/h 45 % 0 mm 60.0 W/m2 SCT
17:10 -5.1 °C -12.1 °C 34428.8 hPa NNW 31.1 km/h 31.1 km/h 45 % 0 mm 54.0 W/m2 SCT
17:15 -5.2 °C -12.1 °C 34428.8 hPa NNW 26.9 km/h 26.9 km/h 45 % 0 mm 53.0 W/m2 SCT
17:20 -5.3 °C -12.1 °C 34428.8 hPa NNW 38.8 km/h 38.8 km/h 46 % 0 mm 76.0 W/m2 SCT
17:25 -5.4 °C -12.1 °C 34428.8 hPa North 38.8 km/h 38.8 km/h 46 % 0 mm 220.0 W/m2 FEW
17:30 -5.4 °C -12 °C 34428.8 hPa NNW 35.7 km/h 35.7 km/h 47 % 0 mm 158.0 W/m2 CLR
17:35 -5.3 °C -11.9 °C 34428.8 hPa North 44.1 km/h 44.1 km/h 47 % 0 mm 134.0 W/m2 CLR
17:40 -5.4 °C -11.8 °C 34442.4 hPa NNW 47.6 km/h 47.6 km/h 48 % 0 mm 160.0 W/m2 CLR
17:45 -5.5 °C -11.9 °C 34442.4 hPa NNW 38.8 km/h 38.8 km/h 48 % 0 mm 178.0 W/m2 CLR
17:50 -5.6 °C -12 °C 34442.4 hPa North 32.8 km/h 32.8 km/h 48 % 0 mm 165.0 W/m2 CLR
17:55 -5.6 °C -11.8 °C 34442.4 hPa NW 29.8 km/h 29.8 km/h 49 % 0 mm 149.0 W/m2 CLR
18:00 -5.6 °C -12 °C 34442.4 hPa NW 47.6 km/h 47.6 km/h 48 % 0 mm 148.0 W/m2 CLR
18:01 -5.6 °C -12 °C 34442.4 hPa NNW 47.6 km/h 47.6 km/h 48 % 0 mm 128.0 W/m2 CLR
18:06 -5.7 °C -12.1 °C 34442.4 hPa NNW 32.8 km/h 32.8 km/h 48 % 0 mm 105.0 W/m2 CLR
18:11 -5.7 °C -12.1 °C 34442.4 hPa North 47.6 km/h 47.6 km/h 48 % 0 mm 83.0 W/m2 CLR
18:16 -5.8 °C -12.2 °C 34442.4 hPa NNW 47.6 km/h 47.6 km/h 48 % 0 mm 95.0 W/m2 CLR
18:21 -5.9 °C -12.1 °C 34442.4 hPa NW 47.6 km/h 47.6 km/h 49 % 0 mm 79.0 W/m2 CLR
18:26 -6 °C -12.2 °C 34442.4 hPa NNW 47.6 km/h 47.6 km/h 49 % 0 mm 90.0 W/m2 CLR
18:31 -6 °C -12.2 °C 34442.4 hPa NNW 29.8 km/h 29.8 km/h 49 % 0 mm 84.0 W/m2 FEW
18:36 -5.9 °C -12.1 °C 34452.6 hPa NW 33.6 km/h 33.6 km/h 49 % 0 mm 93.0 W/m2 CLR
18:41 -6.1 °C -12.1 °C 34452.6 hPa North 51.8 km/h 51.8 km/h 50 % 0 mm 72.0 W/m2 CLR
18:46 -6.2 °C -11.9 °C 34452.6 hPa NNW 41.7 km/h 41.7 km/h 52 % 0 mm 49.0 W/m2 FEW
18:51 -6.3 °C -12 °C 34452.6 hPa NNW 54.4 km/h 54.4 km/h 52 % 0 mm 37.0 W/m2 SCT
18:56 -6.4 °C -12.1 °C 34462.7 hPa NNW 53.6 km/h 53.6 km/h 52 % 0 mm 33.0 W/m2 BKN
19:01 -6.5 °C -12.1 °C 34462.7 hPa NW 54.4 km/h 54.4 km/h 52 % 0 mm 32.0 W/m2 BKN
19:06 -6.6 °C -12.1 °C 34462.7 hPa NW 47.6 km/h 47.6 km/h 53 % 0 mm 33.0 W/m2 BKN
19:11 -6.6 °C -12.1 °C 34462.7 hPa North 47.6 km/h 47.6 km/h 53 % 0 mm 35.0 W/m2 BKN
19:16 -6.7 °C -12 °C 34462.7 hPa WNW 50.7 km/h 50.7 km/h 54 % 0 mm 37.0 W/m2 BKN
19:21 -6.8 °C -12.1 °C 34476.3 hPa NNW 50.7 km/h 50.7 km/h 54 % 0 mm 53.0 W/m2 BKN
19:26 -6.9 °C -12.1 °C 34486.4 hPa NNW 44.7 km/h 44.7 km/h 55 % 0 mm 37.0 W/m2 SCT
19:28 -6.9 °C -12.1 °C 34486.4 hPa NW 59.5 km/h 59.5 km/h 55 % 0 mm 39.0 W/m2 SCT
19:33 -7.1 °C -11.9 °C 34486.4 hPa NW 62.6 km/h 62.6 km/h 57 % 0 mm 26.0 W/m2 BKN
19:38 -7.2 °C -11.9 °C 34486.4 hPa NNW 41.7 km/h 41.7 km/h 58 % 0 mm 14.0 W/m2 BKN
19:43 -7.3 °C -12 °C 34486.4 hPa NW 50.7 km/h 50.7 km/h 58 % 0 mm 25.0 W/m2 BKN
19:48 -7.4 °C -12 °C 34486.4 hPa North 41.7 km/h 41.7 km/h 59 % 0 mm 19.0 W/m2 BKN
19:53 -7.4 °C -12 °C 34486.4 hPa NNE 29.8 km/h 29.8 km/h 59 % 0 mm 14.0 W/m2 BKN
19:58 -7.6 °C -12.1 °C 34486.4 hPa NNW 41.7 km/h 41.7 km/h 59 % 0 mm 11.0 W/m2 BKN
20:03 -7.6 °C -12.1 °C 34486.4 hPa NNW 29.8 km/h 29.8 km/h 59 % 0 mm 11.0 W/m2 BKN
20:08 -7.6 °C -12.1 °C 34496.6 hPa NNW 44.7 km/h 44.7 km/h 59 % 0 mm 11.0 W/m2 BKN
20:13 -7.6 °C -11.9 °C 34496.6 hPa NNW 41.7 km/h 41.7 km/h 61 % 0 mm 7.0 W/m2 BKN
20:18 -7.7 °C -11.8 °C 34510.1 hPa NNW 35.7 km/h 35.7 km/h 62 % 0 mm 5.0 W/m2 OVC
20:23 -7.7 °C -12 °C 34496.6 hPa NNW 32.8 km/h 32.8 km/h 61 % 0 mm 5.0 W/m2 OVC
20:28 -7.7 °C -12 °C 34510.1 hPa NW 44.7 km/h 44.7 km/h 61 % 0 mm 5.0 W/m2 OVC
20:33 -7.7 °C -12.1 °C 34510.1 hPa NW 50.7 km/h 50.7 km/h 60 % 0 mm 5.0 W/m2 OVC
20:38 -7.7 °C -12.1 °C 34510.1 hPa NW 44.7 km/h 44.7 km/h 60 % 0 mm 5.0 W/m2 OVC
20:43 -7.7 °C -12.1 °C 34510.1 hPa WNW 44.7 km/h 44.7 km/h 60 % 0 mm 5.0 W/m2 OVC
20:48 -7.7 °C -12.1 °C 34510.1 hPa WNW 32.8 km/h 32.8 km/h 60 % 0 mm 0.0 W/m2 OVC
20:53 -7.7 °C -12.1 °C 34510.1 hPa WNW 32.8 km/h 32.8 km/h 60 % 0 mm 0.0 W/m2 OVC
20:59 -7.7 °C -12.3 °C 34510.1 hPa NW 35.7 km/h 35.7 km/h 59 % 0 mm 0.0 W/m2 OVC
21:04 -7.7 °C -12.3 °C 34510.1 hPa WNW 32.8 km/h 32.8 km/h 59 % 0 mm 0.0 W/m2 OVC
21:09 -7.7 °C -12.4 °C 34510.1 hPa WNW 29.8 km/h 29.8 km/h 58 % 0 mm 0.0 W/m2 OVC
21:14 -7.7 °C -12.3 °C 34510.1 hPa WNW 29.8 km/h 29.8 km/h 58 % 0 mm 0.0 W/m2 OVC
21:19 -7.7 °C -12.4 °C 34510.1 hPa West 29.8 km/h 29.8 km/h 57 % 0 mm 0.0 W/m2 CLR
21:24 -7.6 °C -12.4 °C 34510.1 hPa WNW 35.7 km/h 35.7 km/h 57 % 0 mm 0.0 W/m2 CLR
21:29 -7.6 °C -12.6 °C 34520.3 hPa WNW 32.8 km/h 32.8 km/h 56 % 0 mm 0.0 W/m2 CLR
21:34 -7.6 °C -12.6 °C 34520.3 hPa WNW 29.8 km/h 29.8 km/h 56 % 0 mm 0.0 W/m2 CLR
21:39 -7.6 °C -12.7 °C 34520.3 hPa WNW 32.8 km/h 32.8 km/h 55 % 0 mm 0.0 W/m2 CLR
21:44 -7.6 °C -12.7 °C 34533.8 hPa WNW 32.8 km/h 32.8 km/h 55 % 0 mm 0.0 W/m2 CLR
21:49 -7.6 °C -12.7 °C 34520.3 hPa WNW 29.8 km/h 29.8 km/h 55 % 0 mm 0.0 W/m2 CLR
21:54 -7.6 °C -12.7 °C 34533.8 hPa NW 31.1 km/h 31.1 km/h 55 % 0 mm 0.0 W/m2 CLR
21:59 -7.6 °C -12.8 °C 34544 hPa WNW 41.7 km/h 41.7 km/h 54 % 0 mm 0.0 W/m2 CLR
22:04 -7.6 °C -12.9 °C 34544 hPa WNW 33.6 km/h 33.6 km/h 54 % 0 mm 0.0 W/m2 CLR
22:09 -7.6 °C -12.7 °C 34544 hPa NW 29.8 km/h 29.8 km/h 55 % 0 mm 0.0 W/m2 CLR
22:14 -7.7 °C -12.8 °C 34544 hPa WNW 29.8 km/h 29.8 km/h 55 % 0 mm 0.0 W/m2 CLR
22:19 -7.7 °C -12.7 °C 34554.1 hPa West 26.9 km/h 26.9 km/h 56 % 0 mm 0.0 W/m2 CLR
22:24 -7.7 °C -12.8 °C 34554.1 hPa WNW 20.8 km/h 20.8 km/h 55 % 0 mm 0.0 W/m2 CLR
22:29 -7.7 °C -12.8 °C 34554.1 hPa West 26.9 km/h 26.9 km/h 55 % 0 mm 0.0 W/m2 CLR
22:34 -7.6 °C -12.9 °C 34554.1 hPa West 26.9 km/h 26.9 km/h 54 % 0 mm 0.0 W/m2 CLR
22:39 -7.6 °C -12.8 °C 34554.1 hPa West 26.9 km/h 26.9 km/h 54 % 0 mm 0.0 W/m2 CLR
22:44 -7.6 °C -13 °C 34567.7 hPa WNW 26.9 km/h 26.9 km/h 53 % 0 mm 0.0 W/m2 CLR
22:49 -7.6 °C -13 °C 34567.7 hPa WNW 38.8 km/h 38.8 km/h 53 % 0 mm 0.0 W/m2 CLR
22:54 -7.6 °C -13 °C 34577.8 hPa NW 44.7 km/h 44.7 km/h 53 % 0 mm 0.0 W/m2 CLR
22:59 -7.6 °C -13 °C 34577.8 hPa NW 29.8 km/h 29.8 km/h 53 % 0 mm 0.0 W/m2 CLR
23:04 -7.6 °C -13 °C 34577.8 hPa NW 35.7 km/h 35.7 km/h 53 % 0 mm 0.0 W/m2 CLR
23:09 -7.6 °C -13 °C 34577.8 hPa NW 35.7 km/h 35.7 km/h 53 % 0 mm 0.0 W/m2 CLR
23:14 -7.6 °C -13 °C 34591.4 hPa NW 41.4 km/h 41.4 km/h 53 % 0 mm 0.0 W/m2 CLR
23:19 -7.7 °C -13.1 °C 34591.4 hPa NW 32.8 km/h 32.8 km/h 53 % 0 mm 0.0 W/m2 CLR
23:24 -7.8 °C -12.9 °C 34591.4 hPa NW 50.7 km/h 50.7 km/h 55 % 0 mm 0.0 W/m2 CLR
23:29 -8.2 °C -12.1 °C 34591.4 hPa NNW 41.4 km/h 41.4 km/h 64 % 7.62 mm 0.0 W/m2 RA
23:34 -8.8 °C -11.7 °C 34591.4 hPa West 26.9 km/h 26.9 km/h 71 % 20.32 mm 0.0 W/m2 RA
23:39 -9 °C -11.8 °C 34591.4 hPa NW 20.9 km/h 20.9 km/h 72 % 20.32 mm 0.0 W/m2
23:44 -9.1 °C -11.9 °C 34591.4 hPa WNW 29.8 km/h 29.8 km/h 71 % 20.32 mm 0.0 W/m2 CLR
23:49 -9 °C -11.8 °C 34591.4 hPa WNW 23.8 km/h 23.8 km/h 72 % 20.32 mm 0.0 W/m2 CLR
23:54 -9 °C -12.1 °C 34591.4 hPa NW 32.8 km/h 32.8 km/h 69 % 20.32 mm 0.0 W/m2 CLR
23:59 -8.9 °C -12.2 °C 34591.4 hPa WNW 26.9 km/h 26.9 km/h 68 % 20.32 mm 0.0 W/m2 CLR
Lo Temps de Massalio
Compliments of Weather Underground - 1.25 mb